ITY427 EDDH-LIML

Flight info

Callsign ITY427
Flight time 1h 26m
Altitude 36000
Route IDEKO7G IDEKO N850 XAROL DCT BOMBI DCT GIGET DCT ABUKA DCT KRH DCT NATOR/N0443F370 DCT TRA DCT RIPUS DCT GERSA DCT SOSON DCT ODINA
Aircraft A320/M-SDE3FGHIRWY/LB1

Departure

Time 2026-04-22 07:15
Airport Hamburg Helmut Schmidt Airport (EDDH)

Arrival

Time 2026-04-22 08:42
Airport Milano Linate Airport (LIML)
Time Latitude Longitude Altitude Speed Heading
2026-04-22 06:52 53.63121 10.00059 49 ft 0 kts 140°
2026-04-22 07:05 53.63133 10.00042 48 ft 3 kts 140°
2026-04-22 07:05 53.63146 10.00024 48 ft 3 kts 155°
2026-04-22 07:05 53.63163 10.00017 43 ft 3 kts 197°
2026-04-22 07:06 53.63179 10.00032 46 ft 2 kts 230°
2026-04-22 07:06 53.63179 10.00033 46 ft 0 kts 230°
2026-04-22 07:12 53.63176 10.00027 48 ft 5 kts 230°
2026-04-22 07:12 53.63144 9.99963 48 ft 7 kts 230°
2026-04-22 07:12 53.63111 9.99908 48 ft 8 kts 211°
2026-04-22 07:13 53.63039 9.99914 48 ft 13 kts 156°
2026-04-22 07:13 53.62956 9.99992 48 ft 13 kts 152°
2026-04-22 07:13 53.62913 9.99970 47 ft 6 kts 238°
2026-04-22 07:13 53.62893 9.99903 47 ft 7 kts 243°
2026-04-22 07:14 53.62871 9.99830 45 ft 7 kts 243°
2026-04-22 07:14 53.62871 9.99750 45 ft 7 kts 306°
2026-04-22 07:14 53.62934 9.99688 45 ft 28 kts 332°
2026-04-22 07:14 53.63338 9.99335 47 ft 99 kts 332°
2026-04-22 07:15 53.64122 9.98658 52 ft 152 kts 332°
2026-04-22 07:15 53.65137 9.97835 459 ft 166 kts 333°
2026-04-22 07:15 53.66169 9.96963 1173 ft 170 kts 332°
2026-04-22 07:15 53.67251 9.96018 1747 ft 181 kts 333°
2026-04-22 07:16 53.68424 9.95009 2075 ft 203 kts 333°
2026-04-22 07:16 53.69713 9.93901 2772 ft 209 kts 333°
2026-04-22 07:16 53.70914 9.92531 3574 ft 213 kts 310°
2026-04-22 07:16 53.71488 9.90216 4196 ft 227 kts 274°
2026-04-22 07:17 53.71199 9.87467 4573 ft 252 kts 254°
2026-04-22 07:17 53.70636 9.84553 5194 ft 267 kts 252°
2026-04-22 07:17 53.70012 9.81560 6003 ft 274 kts 252°
2026-04-22 07:17 53.69380 9.78539 6816 ft 280 kts 252°
2026-04-22 07:18 53.68731 9.75409 7583 ft 285 kts 252°
2026-04-22 07:18 53.68082 9.72219 8389 ft 290 kts 253°
2026-04-22 07:18 53.67430 9.68975 9200 ft 294 kts 253°
2026-04-22 07:18 53.66774 9.65680 10003 ft 299 kts 252°
2026-04-22 07:19 53.65867 9.62489 10323 ft 304 kts 236°
2026-04-22 07:19 53.64432 9.59808 10411 ft 321 kts 218°
2026-04-22 07:19 53.62466 9.57828 10409 ft 340 kts 200°
2026-04-22 07:19 53.60151 9.56902 10407 ft 345 kts 184°
2026-04-22 07:20 53.57782 9.56450 10638 ft 352 kts 184°
2026-04-22 07:20 53.55348 9.55987 11463 ft 353 kts 184°
2026-04-22 07:20 53.52899 9.55515 12213 ft 356 kts 184°
2026-04-22 07:20 53.50422 9.55032 12935 ft 360 kts 184°
2026-04-22 07:21 53.47916 9.54537 13644 ft 365 kts 184°
2026-04-22 07:21 53.45382 9.54029 14329 ft 369 kts 184°
2026-04-22 07:21 53.42819 9.53516 14936 ft 373 kts 184°
2026-04-22 07:21 53.40227 9.52998 15545 ft 377 kts 184°
2026-04-22 07:22 53.37643 9.52485 16137 ft 381 kts 184°
2026-04-22 07:22 53.34996 9.51966 16742 ft 385 kts 183°
2026-04-22 07:22 53.32325 9.51444 17357 ft 388 kts 183°
2026-04-22 07:22 53.29627 9.50918 17945 ft 392 kts 183°
2026-04-22 07:23 53.26908 9.50390 18531 ft 396 kts 183°
2026-04-22 07:23 53.24156 9.49855 19057 ft 400 kts 183°
2026-04-22 07:23 53.21378 9.49313 19565 ft 404 kts 182°
2026-04-22 07:23 53.18574 9.48768 20075 ft 408 kts 182°
2026-04-22 07:24 53.15744 9.48221 20584 ft 411 kts 182°
2026-04-22 07:24 53.12926 9.47676 21086 ft 415 kts 182°
2026-04-22 07:24 53.10044 9.47119 21590 ft 419 kts 182°
2026-04-22 07:24 53.07135 9.46555 22087 ft 423 kts 182°
2026-04-22 07:25 53.04201 9.45985 22581 ft 426 kts 182°
2026-04-22 07:25 53.01242 9.45411 23060 ft 430 kts 182°
2026-04-22 07:25 52.98257 9.44829 23531 ft 434 kts 182°
2026-04-22 07:25 52.95248 9.44213 23983 ft 437 kts 182°
2026-04-22 07:26 52.92224 9.43564 24366 ft 441 kts 183°
2026-04-22 07:26 52.89215 9.42904 24754 ft 443 kts 183°
2026-04-22 07:26 52.86150 9.42232 25155 ft 445 kts 182°
2026-04-22 07:26 52.83073 9.41563 25551 ft 447 kts 182°
2026-04-22 07:27 52.79984 9.40897 25924 ft 449 kts 182°
2026-04-22 07:27 52.76881 9.40235 26293 ft 451 kts 182°
2026-04-22 07:27 52.73764 9.39576 26652 ft 453 kts 182°
2026-04-22 07:27 52.70632 9.38916 27010 ft 455 kts 182°
2026-04-22 07:28 52.64369 9.37590 27700 ft 459 kts 182°
2026-04-22 07:28 52.61197 9.36908 28055 ft 461 kts 183°
2026-04-22 07:28 52.58016 9.36145 28401 ft 463 kts 184°
2026-04-22 07:29 52.54827 9.35307 28731 ft 465 kts 185°
2026-04-22 07:29 52.51635 9.34430 29047 ft 467 kts 185°
2026-04-22 07:29 52.48416 9.33539 29356 ft 469 kts 185°
2026-04-22 07:29 52.45198 9.32660 29650 ft 471 kts 185°
2026-04-22 07:30 52.41959 9.31795 29934 ft 472 kts 185°
2026-04-22 07:30 52.38708 9.30945 30229 ft 474 kts 185°
2026-04-22 07:30 52.35490 9.30116 30509 ft 475 kts 185°
2026-04-22 07:30 52.32221 9.29275 30737 ft 476 kts 185°
2026-04-22 07:31 52.28941 9.28426 30954 ft 478 kts 185°
2026-04-22 07:31 52.25653 9.27571 31173 ft 479 kts 185°
2026-04-22 07:31 52.22362 9.26730 31463 ft 478 kts 185°
2026-04-22 07:31 52.19072 9.26000 31749 ft 476 kts 183°
2026-04-22 07:32 52.15782 9.25384 32039 ft 476 kts 182°
2026-04-22 07:32 52.12536 9.24843 32325 ft 475 kts 182°
2026-04-22 07:32 52.09260 9.24319 32623 ft 474 kts 182°
2026-04-22 07:32 52.05981 9.23787 32908 ft 473 kts 182°
2026-04-22 07:33 52.02706 9.23170 33182 ft 474 kts 184°
2026-04-22 07:33 51.99442 9.22396 33455 ft 474 kts 186°
2026-04-22 07:33 51.96186 9.21510 33733 ft 474 kts 187°
2026-04-22 07:33 51.92936 9.20572 34003 ft 474 kts 187°
2026-04-22 07:34 51.89688 9.19638 34307 ft 474 kts 187°
2026-04-22 07:34 51.86442 9.18750 34559 ft 473 kts 186°
2026-04-22 07:34 51.83233 9.17980 34787 ft 472 kts 185°
2026-04-22 07:34 51.79978 9.17285 35011 ft 472 kts 185°
2026-04-22 07:35 51.76720 9.16635 35230 ft 472 kts 185°
2026-04-22 07:35 51.73461 9.15991 35439 ft 472 kts 185°
2026-04-22 07:35 51.70211 9.15331 35644 ft 472 kts 185°
2026-04-22 07:35 51.66955 9.14650 35856 ft 472 kts 186°
2026-04-22 07:36 51.63702 9.13951 36058 ft 471 kts 186°
2026-04-22 07:36 51.60452 9.13239 36249 ft 471 kts 186°
2026-04-22 07:36 51.57199 9.12528 36364 ft 472 kts 186°
2026-04-22 07:36 51.53994 9.11826 36382 ft 471 kts 186°
2026-04-22 07:37 51.47521 9.10266 36381 ft 470 kts 189°
2026-04-22 07:37 51.41112 9.08102 36379 ft 471 kts 192°
2026-04-22 07:38 51.34732 9.05737 36377 ft 470 kts 191°
2026-04-22 07:38 51.28370 9.03676 36380 ft 470 kts 187°
2026-04-22 07:39 51.21888 9.02381 36381 ft 469 kts 184°
2026-04-22 07:39 51.15394 9.01337 36384 ft 469 kts 185°
2026-04-22 07:40 51.08910 9.00157 36386 ft 469 kts 186°
2026-04-22 07:40 51.02477 8.98849 36385 ft 469 kts 186°
2026-04-22 07:41 50.96011 8.97527 36379 ft 469 kts 186°
2026-04-22 07:41 50.89536 8.96249 36377 ft 469 kts 186°
2026-04-22 07:42 50.83062 8.94976 36371 ft 469 kts 186°
2026-04-22 07:42 50.76590 8.93704 36371 ft 469 kts 186°
2026-04-22 07:43 50.70161 8.92452 36367 ft 469 kts 186°
2026-04-22 07:43 50.63692 8.91196 36366 ft 468 kts 186°
2026-04-22 07:44 50.57221 8.89935 36361 ft 468 kts 186°
2026-04-22 07:44 50.50750 8.88679 36361 ft 468 kts 186°
2026-04-22 07:45 50.44321 8.87431 36348 ft 469 kts 186°
2026-04-22 07:45 50.37854 8.86181 36348 ft 469 kts 186°
2026-04-22 07:46 50.31375 8.84941 36344 ft 469 kts 186°
2026-04-22 07:46 50.24897 8.83707 36337 ft 469 kts 187°
2026-04-22 07:47 50.18417 8.82465 36335 ft 469 kts 187°
2026-04-22 07:47 50.11936 8.81229 36333 ft 469 kts 187°
2026-04-22 07:48 50.05502 8.80016 36332 ft 469 kts 187°
2026-04-22 07:48 49.99026 8.78704 36335 ft 469 kts 188°
2026-04-22 07:49 49.92558 8.77311 36332 ft 469 kts 188°
2026-04-22 07:49 49.86130 8.75959 36316 ft 469 kts 188°
2026-04-22 07:50 49.79655 8.74621 36313 ft 469 kts 188°
2026-04-22 07:50 49.73183 8.73306 36316 ft 470 kts 188°
2026-04-22 07:51 49.66703 8.71987 36321 ft 470 kts 188°
2026-04-22 07:51 49.60263 8.70683 36320 ft 470 kts 188°
2026-04-22 07:52 49.53772 8.69378 36322 ft 471 kts 188°
2026-04-22 07:52 49.47276 8.68071 36326 ft 471 kts 188°
2026-04-22 07:53 49.40777 8.66755 36316 ft 471 kts 189°
2026-04-22 07:53 49.34320 8.65445 36308 ft 472 kts 189°
2026-04-22 07:54 49.27807 8.64132 36296 ft 472 kts 189°
2026-04-22 07:54 49.21289 8.62826 36272 ft 472 kts 189°
2026-04-22 07:55 49.14776 8.61517 36265 ft 473 kts 189°
2026-04-22 07:55 49.08254 8.60216 36261 ft 473 kts 189°
2026-04-22 07:56 49.01775 8.58915 36259 ft 473 kts 189°
2026-04-22 07:56 48.95282 8.57384 36248 ft 471 kts 193°
2026-04-22 07:57 48.88876 8.55261 36247 ft 471 kts 195°
2026-04-22 07:57 48.82494 8.53001 36244 ft 471 kts 195°
2026-04-22 07:58 48.76132 8.50865 36228 ft 472 kts 195°
2026-04-22 07:58 48.69710 8.48831 36237 ft 471 kts 194°
2026-04-22 07:59 48.63286 8.46819 36244 ft 471 kts 194°
2026-04-22 07:59 48.56912 8.44790 36237 ft 471 kts 195°
2026-04-22 08:00 48.50503 8.42730 36231 ft 471 kts 195°
2026-04-22 08:00 48.44088 8.40684 36234 ft 471 kts 195°
2026-04-22 08:01 48.37679 8.38655 36230 ft 471 kts 195°
2026-04-22 08:01 48.31264 8.36621 36220 ft 471 kts 195°
2026-04-22 08:02 48.24894 8.34608 36218 ft 471 kts 195°
2026-04-22 08:02 48.18458 8.32792 36219 ft 473 kts 187°
2026-04-22 08:03 48.11867 8.33346 36202 ft 478 kts 173°
2026-04-22 08:03 48.05303 8.34970 36194 ft 478 kts 173°
2026-04-22 08:04 47.98766 8.36548 36314 ft 480 kts 173°
2026-04-22 08:04 47.95473 8.37337 36497 ft 480 kts 173°
2026-04-22 08:04 47.92175 8.38129 36680 ft 480 kts 173°
2026-04-22 08:05 47.88875 8.38925 36812 ft 481 kts 173°
2026-04-22 08:05 47.85568 8.39723 36957 ft 482 kts 173°
2026-04-22 08:05 47.82258 8.40523 37125 ft 482 kts 173°
2026-04-22 08:05 47.78943 8.41320 37188 ft 483 kts 173°
2026-04-22 08:06 47.72352 8.42888 37203 ft 483 kts 173°
2026-04-22 08:06 47.65712 8.44350 37190 ft 482 kts 176°
2026-04-22 08:07 47.59035 8.45342 37191 ft 482 kts 178°
2026-04-22 08:07 47.52354 8.46171 37193 ft 482 kts 178°
2026-04-22 08:08 47.45714 8.47079 37178 ft 483 kts 178°
2026-04-22 08:08 47.39026 8.48064 37178 ft 484 kts 177°
2026-04-22 08:09 47.32329 8.49062 37183 ft 484 kts 177°
2026-04-22 08:09 47.25627 8.50051 37182 ft 485 kts 178°
2026-04-22 08:10 47.18945 8.51030 37179 ft 486 kts 178°
2026-04-22 08:10 47.12219 8.52008 37171 ft 486 kts 178°
2026-04-22 08:11 47.05482 8.52985 37139 ft 487 kts 178°
2026-04-22 08:11 46.98739 8.53957 37143 ft 487 kts 178°
2026-04-22 08:12 46.92031 8.54926 37143 ft 488 kts 178°
2026-04-22 08:12 46.85273 8.55900 37131 ft 488 kts 179°
2026-04-22 08:13 46.78507 8.56869 37129 ft 489 kts 179°
2026-04-22 08:13 46.71734 8.57828 37145 ft 489 kts 178°
2026-04-22 08:14 46.68333 8.58315 36312 ft 495 kts 179°
2026-04-22 08:14 46.64871 8.58813 35155 ft 504 kts 179°
2026-04-22 08:14 46.61361 8.59320 34072 ft 507 kts 181°
2026-04-22 08:14 46.57889 8.59818 32674 ft 507 kts 181°
2026-04-22 08:15 46.54378 8.60317 31362 ft 506 kts 182°
2026-04-22 08:15 46.50884 8.60812 30134 ft 503 kts 182°
2026-04-22 08:15 46.47428 8.61307 29206 ft 491 kts 181°
2026-04-22 08:15 46.44102 8.61799 28742 ft 471 kts 181°
2026-04-22 08:16 46.40896 8.62270 28193 ft 455 kts 182°
2026-04-22 08:16 46.37840 8.62710 27700 ft 440 kts 182°
2026-04-22 08:16 46.34848 8.63133 27224 ft 428 kts 182°
2026-04-22 08:16 46.31883 8.63534 26734 ft 428 kts 182°
2026-04-22 08:17 46.28923 8.63924 26262 ft 426 kts 181°
2026-04-22 08:17 46.25989 8.64316 25810 ft 424 kts 181°
2026-04-22 08:17 46.23057 8.64718 25340 ft 422 kts 182°
2026-04-22 08:17 46.20146 8.65128 24888 ft 418 kts 182°
2026-04-22 08:18 46.17261 8.65536 24449 ft 416 kts 181°
2026-04-22 08:18 46.14386 8.65941 24005 ft 414 kts 181°
2026-04-22 08:18 46.11522 8.66590 23500 ft 420 kts 171°
2026-04-22 08:18 46.08789 8.67912 23041 ft 419 kts 160°
2026-04-22 08:19 46.06197 8.69830 22569 ft 418 kts 154°
2026-04-22 08:19 46.03657 8.71837 22110 ft 415 kts 154°
2026-04-22 08:19 46.01128 8.73820 21633 ft 412 kts 155°
2026-04-22 08:19 45.98611 8.75779 21162 ft 411 kts 155°
2026-04-22 08:20 45.96094 8.77728 20686 ft 410 kts 155°
2026-04-22 08:20 45.93587 8.79673 20211 ft 409 kts 154°
2026-04-22 08:20 45.91122 8.81593 19735 ft 408 kts 154°
2026-04-22 08:20 45.88636 8.83530 19260 ft 406 kts 154°
2026-04-22 08:21 45.86156 8.85464 18781 ft 405 kts 154°
2026-04-22 08:21 45.83682 8.87392 18365 ft 402 kts 153°
2026-04-22 08:21 45.81268 8.89271 18196 ft 390 kts 154°
2026-04-22 08:21 45.78917 8.91097 18052 ft 379 kts 154°
2026-04-22 08:22 45.76631 8.92872 17861 ft 369 kts 154°
2026-04-22 08:22 45.74392 8.94609 17233 ft 363 kts 154°
2026-04-22 08:22 45.72183 8.96316 16586 ft 358 kts 154°
2026-04-22 08:22 45.70035 8.97973 16031 ft 352 kts 153°
2026-04-22 08:23 45.67896 8.99618 15458 ft 346 kts 153°
2026-04-22 08:23 45.65791 9.01235 14902 ft 341 kts 153°
2026-04-22 08:23 45.63708 9.02836 14477 ft 340 kts 152°
2026-04-22 08:23 45.61648 9.04421 14245 ft 334 kts 152°
2026-04-22 08:24 45.59608 9.05988 13857 ft 333 kts 152°
2026-04-22 08:24 45.57573 9.07550 13477 ft 331 kts 152°
2026-04-22 08:24 45.55550 9.09096 13131 ft 328 kts 152°
2026-04-22 08:24 45.53587 9.10597 12958 ft 320 kts 152°
2026-04-22 08:25 45.51638 9.12021 12831 ft 310 kts 159°
2026-04-22 08:25 45.49601 9.12828 12658 ft 300 kts 174°
2026-04-22 08:25 45.47537 9.13088 12376 ft 296 kts 177°
2026-04-22 08:25 45.45499 9.13309 11854 ft 292 kts 177°
2026-04-22 08:26 45.43485 9.13529 11353 ft 288 kts 177°
2026-04-22 08:26 45.41497 9.13750 10960 ft 286 kts 176°
2026-04-22 08:26 45.39535 9.13969 10706 ft 281 kts 176°
2026-04-22 08:26 45.37616 9.14186 10462 ft 280 kts 176°
2026-04-22 08:27 45.35676 9.14405 10222 ft 280 kts 176°
2026-04-22 08:27 45.33739 9.14619 10040 ft 278 kts 176°
2026-04-22 08:27 45.31815 9.14831 9908 ft 276 kts 176°
2026-04-22 08:27 45.29892 9.15045 9763 ft 279 kts 176°
2026-04-22 08:28 45.27952 9.15262 9635 ft 280 kts 176°
2026-04-22 08:28 45.26018 9.15478 9501 ft 278 kts 175°
2026-04-22 08:28 45.24147 9.15687 9357 ft 270 kts 175°
2026-04-22 08:28 45.22312 9.15892 9227 ft 259 kts 175°
2026-04-22 08:29 45.20545 9.16088 9080 ft 252 kts 175°
2026-04-22 08:29 45.18790 9.16281 8957 ft 254 kts 175°
2026-04-22 08:29 45.17044 9.16474 8818 ft 249 kts 175°
2026-04-22 08:29 45.15316 9.16665 8740 ft 250 kts 175°
2026-04-22 08:30 45.13589 9.16857 8628 ft 248 kts 175°
2026-04-22 08:30 45.11877 9.17051 8474 ft 246 kts 174°
2026-04-22 08:30 45.10201 9.17242 8319 ft 244 kts 174°
2026-04-22 08:30 45.08499 9.17435 8156 ft 246 kts 174°
2026-04-22 08:31 45.06791 9.17624 7986 ft 246 kts 174°
2026-04-22 08:31 45.05096 9.17809 7823 ft 243 kts 174°
2026-04-22 08:31 45.01740 9.18178 7485 ft 241 kts 173°
2026-04-22 08:32 45.00068 9.18377 7312 ft 241 kts 170°
2026-04-22 08:32 44.98543 9.19192 7140 ft 233 kts 139°
2026-04-22 08:32 44.97556 9.20924 6987 ft 225 kts 109°
2026-04-22 08:32 44.97316 9.23021 6827 ft 219 kts 84°
2026-04-22 08:33 44.97441 9.25160 6663 ft 219 kts 84°
2026-04-22 08:33 44.97564 9.27297 6497 ft 217 kts 84°
2026-04-22 08:33 44.97696 9.29417 6221 ft 215 kts 79°
2026-04-22 08:33 44.98303 9.31286 6031 ft 212 kts 48°
2026-04-22 08:34 44.99559 9.32374 5860 ft 219 kts 15°
2026-04-22 08:34 45.01101 9.32363 5717 ft 226 kts 356°
2026-04-22 08:34 45.02663 9.32137 5563 ft 225 kts
2026-04-22 08:34 45.04228 9.31974 5409 ft 225 kts
2026-04-22 08:35 45.05793 9.31832 5253 ft 225 kts
2026-04-22 08:35 45.07338 9.31683 5099 ft 226 kts
2026-04-22 08:35 45.08906 9.31518 4964 ft 226 kts
2026-04-22 08:35 45.10473 9.31351 4805 ft 226 kts
2026-04-22 08:36 45.12037 9.31185 4656 ft 225 kts
2026-04-22 08:36 45.13602 9.31018 4508 ft 226 kts
2026-04-22 08:36 45.15171 9.30851 4354 ft 226 kts
2026-04-22 08:36 45.16739 9.30684 4220 ft 226 kts
2026-04-22 08:37 45.18287 9.30519 4074 ft 226 kts
2026-04-22 08:37 45.19853 9.30351 3923 ft 226 kts
2026-04-22 08:37 45.21414 9.30185 3780 ft 225 kts 359°
2026-04-22 08:37 45.22974 9.30018 3636 ft 225 kts 359°
2026-04-22 08:38 45.24532 9.29851 3496 ft 224 kts 359°
2026-04-22 08:38 45.26086 9.29685 3348 ft 224 kts 360°
2026-04-22 08:38 45.27638 9.29519 3198 ft 223 kts
2026-04-22 08:38 45.29181 9.29353 3097 ft 223 kts
2026-04-22 08:39 45.30705 9.29190 2883 ft 222 kts
2026-04-22 08:39 45.32248 9.29025 2593 ft 222 kts
2026-04-22 08:39 45.33788 9.28860 2298 ft 222 kts
2026-04-22 08:39 45.35317 9.28695 1983 ft 215 kts 360°
2026-04-22 08:40 45.36746 9.28538 1716 ft 198 kts
2026-04-22 08:40 45.38051 9.28396 1464 ft 180 kts
2026-04-22 08:40 45.39252 9.28267 1196 ft 165 kts
2026-04-22 08:40 45.40335 9.28150 993 ft 150 kts 359°
2026-04-22 08:41 45.41344 9.28038 791 ft 145 kts 360°
2026-04-22 08:41 45.42350 9.27934 599 ft 144 kts
2026-04-22 08:41 45.43351 9.27827 430 ft 144 kts 360°
2026-04-22 08:41 45.44319 9.27738 363 ft 128 kts 358°
2026-04-22 08:42 45.45025 9.27653 363 ft 74 kts 355°
2026-04-22 08:42 45.45329 9.27674 365 ft 22 kts 26°
2026-04-22 08:42 45.45424 9.27745 363 ft 14 kts 35°
2026-04-22 08:42 45.45501 9.27818 363 ft 14 kts 10°
2026-04-22 08:43 45.45591 9.27823 360 ft 12 kts
2026-04-22 08:43 45.45670 9.27822 364 ft 11 kts 358°
2026-04-22 08:43 45.45740 9.27818 360 ft 9 kts 358°
2026-04-22 08:43 45.45802 9.27817 360 ft 8 kts
2026-04-22 08:44 45.45856 9.27818 360 ft 7 kts
2026-04-22 08:44 45.45898 9.27835 362 ft 6 kts 46°
2026-04-22 08:44 45.45907 9.27885 360 ft 5 kts 84°
2026-04-22 08:44 45.45928 9.27904 360 ft 3 kts
2026-04-22 08:45 45.45950 9.27904 360 ft 3 kts 359°
2026-04-22 08:45 45.45966 9.27904 360 ft 2 kts
2026-04-22 08:45 45.45974 9.27904 360 ft 0 kts